{"data":{"norad_id":67722,"intl_designator":"2026-026B","name":"STARLINK-36796","alt_names":[],"object_type":"PAYLOAD","status":"ACTIVE","operator":null,"country":"US","launch_date":"2026-02-11","launch_site_code":"AFWTR","launch_vehicle":null,"mission":null,"orbit_class":"UNKNOWN","rcs_meters":null,"size_class":null,"mass_kg":null,"dimensions":null,"purposes":["comms"],"wikipedia_slug":null,"has_3d_model":false,"image_url":null,"decayed_at":null,"tle_current":{"epoch":"2026-09-19T08:58:50.586240Z","epoch_age_seconds":163712,"freshness":"FRESH","line1":"1 67722U 26026B   26262.37419660  .00015039  00000+0  46708-3 0  9999","line2":"2 67722  97.2847 314.1537 0000794 106.6261 253.5069 15.33455209 33800","mean_motion":15.33455209,"eccentricity":7.94e-5,"inclination_deg":97.2847,"raan_deg":314.1537,"arg_perigee_deg":106.6261,"mean_anomaly_deg":253.5069,"bstar":0.00046708,"rev_number":3380,"period_min":93.905579474933,"perigee_km":464.96941405118,"apogee_km":466.0561856394,"semimajor_km":6843.6497998453,"source":"CELESTRAK","updated_at":"2026-09-20T09:00:43.656457Z"}}}